GFSGBSN_sfc_rhum_180.txt.gz
RH
95 87 87 88 90 91 91 91 92 92 92 92 92 91 90 90 89 88 89 88 88 85 86 87 88 86 42 25 18 24 62 50 22 18 16 17 17 15 13 12 15 16 10 11 12 13 14
94 94 89 89 91 92 91 91 92 92 92 92 91 91 91 90 90 90 90 89 89 88 87 88 85 84 40 29 18 26 30 28 24 21 20 19 19 19 19 19 19 17 18 15 15 15 14
92 95 94 91 91 92 92 92 92 93 92 92 92 91 91 91 91 91 90 90 90 87 87 90 81 54 55 30 22 26 30 28 27 25 23 20 19 21 23 21 21 22 24 15 13 12 13
92 94 95 95 91 92 92 92 93 94 93 92 92 92 92 92 92 92 92 91 90 86 88 90 79 59 46 30 31 33 25 27 26 26 26 20 18 21 25 21 21 25 18 19 13 15 14
89 94 94 96 94 93 93 93 93 93 93 93 93 93 92 93 93 93 93 93 90 88 90 85 66 62 42 45 40 29 32 32 33 39 33 29 24 20 27 24 20 20 19 14 12 14 14
84 92 94 95 95 94 93 93 93 93 93 93 93 94 93 94 94 95 94 88 91 88 80 64 61 62 39 26 34 33 36 35 41 42 42 36 27 24 22 23 26 17 16 18 20 15 18
83 88 94 93 96 96 95 93 93 93 93 93 93 94 94 95 95 96 88 67 61 69 77 39 42 38 38 34 32 32 35 38 37 37 35 38 29 30 22 22 22 20 19 20 16 15 21
83 90 94 94 93 95 96 96 94 94 94 93 93 93 94 95 96 94 64 57 40 51 53 60 44 45 41 42 49 32 33 38 43 40 34 44 40 27 23 24 23 24 24 22 19 17 24
79 90 92 93 95 97 95 94 96 95 94 93 93 93 94 96 96 95 76 54 45 49 54 47 54 56 52 46 48 41 32 33 37 39 36 44 30 30 32 32 30 27 29 28 26 22 22
82 91 91 94 94 96 96 96 96 95 95 96 94 94 96 97 99 94 86 52 59 60 89 64 68 57 53 48 56 37 34 34 37 41 37 38 33 36 34 40 34 41 29 32 34 36 38
85 89 91 93 95 98 97 97 97 96 96 96 95 95 98 97 94 96 78 78 88 93 100 44 57 42 50 52 47 53 40 43 50 44 40 41 37 40 43 38 32 38 31 34 34 36 37
90 92 97 98 99 99 97 97 97 96 97 97 97 97 97 98 96 77 87 90 96 100 95 61 56 64 72 57 50 49 51 43 42 46 41 40 29 38 35 33 33 32 36 35 35 38 52
91 91 98 98 99 99 100 98 98 98 97 97 98 98 98 96 97 94 94 98 100 100 42 60 62 62 57 61 58 52 59 60 53 77 63 47 45 37 34 37 34 35 40 52 51 60 51
92 93 97 99 99 99 99 99 99 98 98 98 98 98 99 98 97 95 96 97 100 61 46 41 50 56 58 52 52 52 54 54 48 48 43 41 41 41 38 40 37 39 39 51 60 45 34
98 98 98 98 98 99 98 99 99 99 99 99 98 99 99 99 96 96 99 100 93 55 39 47 49 54 54 48 46 51 52 46 39 45 44 43 42 36 37 35 34 41 46 34 48 44 52
95 96 97 96 96 97 98 98 99 99 99 98 99 99 100 98 96 98 99 97 79 49 43 43 49 42 46 44 47 47 49 38 44 40 36 40 42 32 33 36 35 37 33 56 64 89 72
93 94 93 95 95 96 95 96 96 98 99 98 99 100 99 98 99 99 100 96 78 55 46 50 52 43 40 46 42 47 38 40 41 42 40 39 44 36 38 43 38 46 50 50 50 54 60
93 94 94 93 94 96 94 93 97 96 99 100 99 100 97 99 100 100 100 86 80 60 61 63 59 54 47 44 43 42 41 37 38 40 54 45 52 48 33 25 25 28 35 44 69 57 64
90 92 91 90 92 92 92 92 91 95 97 98 100 100 96 99 100 100 100 89 75 73 68 74 71 55 49 55 68 46 42 47 47 42 49 50 64 57 42 35 35 42 36 34 39 51 58
83 84 85 86 88 88 91 91 90 90 92 94 98 100 99 99 100 100 100 100 100 87 89 87 81 66 65 66 54 53 52 60 54 47 72 61 48 52 46 45 50 57 45 41 48 78 68
74 76 77 79 80 82 85 90 91 89 85 96 99 100 96 100 100 100 96 100 100 100 96 88 97 88 88 99 83 76 54 66 65 73 59 56 71 52 44 40 38 43 46 42 46 48 82
64 67 69 70 72 73 75 78 88 87 86 96 100 100 99 100 97 100 98 100 100 100 99 100 100 100 97 100 100 100 95 91 86 87 78 90 100 82 83 47 53 72 52 40 42 46 54
70 68 64 64 66 68 69 74 79 81 84 99 98 94 96 100 100 100 99 99 100 98 100 93 96 99 100 99 91 88 88 84 89 86 94 96 99 99 96 59 62 98 90 62 53 46 54
68 72 70 67 64 62 65 69 75 77 72 88 94 92 99 99 94 96 89 88 98 99 97 96 95 96 94 75 78 79 82 80 82 88 71 93 98 88 79 57 96 44 25 33 36 36 38
74 69 66 70 69 67 65 64 69 72 75 60 76 70 92 100 85 94 95 95 98 95 92 94 91 78 66 66 68 66 67 68 60 60 64 66 68 94 91 66 52 38 33 57 62 45 57
70 67 67 73 65 69 67 66 64 71 67 55 62 57 69 84 88 83 93 88 92 84 82 80 68 62 59 65 72 82 60 55 57 54 54 60 82 96 93 91 78 62 54 47 55 79 94
71 71 72 68 75 67 70 67 67 66 70 55 61 71 49 86 52 57 68 83 56 60 69 74 88 85 58 82 80 64 51 40 48 55 59 81 88 90 75 89 67 54 48 52 86 89 85
71 70 73 76 75 70 69 73 68 65 66 54 61 70 57 68 56 54 51 60 57 47 65 67 77 81 84 90 73 66 60 40 43 34 40 40 54 65 82 81 78 50 41 67 62 46 65
74 73 72 75 77 76 73 70 74 69 71 53 58 66 64 70 58 65 58 51 46 40 45 59 51 58 64 72 71 58 67 60 43 49 34 56 36 43 37 42 35 29 28 35 40 38 35

GFSGBSN_sfc_rhum_183.txt.gz
RH
89 90 94 86 85 84 87 90 91 92 92 92 92 92 91 90 89 88 88 88 86 84 80 81 86 86 41 21 15 25 49 40 17 14 12 10 12 10 11 7 8 9 9 7 5 7 8
90 90 92 92 87 87 88 90 91 92 92 92 92 92 91 90 90 90 89 88 88 87 83 86 84 88 36 31 12 15 17 16 13 13 12 13 12 13 14 11 11 9 9 10 9 8 8
87 91 91 95 90 89 89 90 92 92 92 91 91 92 91 91 90 90 90 89 89 86 83 84 79 42 38 28 14 12 18 16 16 15 15 14 14 16 14 16 12 14 16 12 10 8 8
80 89 90 94 96 90 90 91 92 92 92 91 91 91 92 91 91 91 91 90 90 85 85 86 78 43 37 17 19 21 19 18 15 16 16 15 14 15 17 16 16 18 17 18 10 8 8
75 80 86 92 96 96 92 92 92 92 92 91 91 91 92 92 92 93 92 92 89 86 88 86 58 48 32 40 30 21 18 19 16 18 21 18 18 18 16 22 22 18 18 16 12 8 9
76 82 85 89 96 97 94 93 92 92 93 92 92 92 92 92 93 94 94 89 90 90 74 48 43 50 30 20 30 25 27 24 28 30 30 28 23 20 19 19 25 18 16 14 15 10 11
75 76 84 88 92 96 96 94 93 93 94 93 92 92 92 92 94 94 88 67 69 61 58 38 29 22 24 23 26 28 29 29 30 33 33 30 29 26 22 19 18 19 20 20 17 14 14
74 77 78 83 90 96 95 95 95 94 94 93 93 93 92 92 94 93 62 51 32 40 48 49 31 24 19 29 35 26 24 32 35 36 28 29 37 25 20 19 21 22 23 22 18 15 16
76 75 82 84 87 96 95 97 96 96 95 93 92 93 93 94 94 94 63 50 24 36 38 22 35 30 23 23 27 19 28 29 30 33 31 33 24 21 25 25 27 26 27 24 22 19 19
76 77 77 87 87 95 95 96 97 96 96 96 94 93 94 96 98 90 72 41 36 57 49 32 36 36 30 28 39 22 18 27 29 34 29 28 22 25 26 29 28 34 22 23 26 30 33
78 79 78 80 88 93 95 96 97 96 96 96 95 94 96 94 74 96 58 47 65 84 99 31 40 33 36 45 34 34 24 27 36 29 30 31 28 31 35 31 26 32 26 27 28 31 33
81 82 80 80 85 93 96 97 98 97 97 96 96 96 96 98 97 75 61 78 88 98 98 42 47 53 56 52 42 40 40 33 35 43 39 36 25 28 28 26 27 26 31 32 32 33 42
81 82 81 79 91 93 95 98 98 98 97 97 97 96 97 92 94 87 86 93 100 99 39 42 56 51 55 59 54 47 50 53 48 68 65 43 37 28 30 33 29 30 38 44 45 47 43
88 82 81 81 88 91 96 98 99 98 97 97 98 97 93 94 94 92 96 100 100 66 43 34 38 47 56 44 48 47 48 47 40 37 35 43 44 33 29 35 30 34 34 42 51 40 26
92 81 81 90 99 96 97 99 99 98 98 97 98 98 98 99 95 93 99 100 97 51 35 38 40 51 48 41 38 44 45 40 35 35 39 32 30 25 27 28 28 31 39 28 39 36 42
91 86 93 98 98 98 98 98 99 99 98 98 98 99 99 97 94 97 99 98 80 50 36 34 48 41 47 43 43 43 42 32 32 29 30 30 36 28 28 26 27 29 24 43 48 69 56
96 97 96 96 96 97 97 98 99 98 98 96 99 100 99 99 98 99 100 96 73 42 38 41 41 40 33 41 39 42 37 30 29 30 29 31 36 28 30 36 30 34 37 37 36 43 55
94 95 95 95 95 96 97 96 97 98 99 98 99 100 99 99 100 100 100 81 65 51 48 50 42 39 46 42 46 40 42 36 28 28 37 32 39 41 31 21 20 22 27 34 67 52 44
93 95 94 94 94 93 94 95 98 98 98 99 100 100 97 100 100 100 100 86 73 64 71 69 56 46 45 60 81 53 44 40 34 34 36 36 53 48 36 27 24 29 29 26 36 44 56
85 88 89 91 92 92 90 92 92 93 91 97 100 100 100 100 100 100 100 100 99 88 80 83 69 63 70 80 69 58 48 42 41 38 70 58 46 45 46 37 34 41 33 32 37 65 55
75 76 77 79 83 88 90 90 89 91 92 96 100 100 96 100 100 100 95 100 100 100 95 88 93 79 84 99 80 71 46 57 52 62 52 50 59 44 36 32 31 32 34 32 38 39 64
65 66 70 71 73 76 82 88 88 88 84 97 100 100 96 99 89 99 97 100 100 100 98 100 100 98 79 97 99 83 64 60 91 76 63 55 91 61 66 42 41 51 38 33 28 30 30
72 71 66 64 65 69 74 79 81 85 86 100 98 91 94 99 100 99 96 98 99 98 98 92 94 98 100 99 93 92 88 89 90 94 83 96 97 100 94 51 54 86 61 43 36 32 33
71 70 72 72 66 63 66 73 76 78 80 96 96 96 100 100 98 98 89 90 96 93 98 95 89 98 96 77 77 77 78 86 92 89 82 100 100 95 91 62 97 44 26 26 31 35 54
69 70 72 72 73 69 65 65 72 72 73 67 91 94 100 100 96 94 95 95 96 95 96 96 93 73 67 75 94 93 91 85 66 58 65 78 94 100 94 78 48 34 34 46 49 47 60
70 72 69 70 71 72 70 67 64 68 70 53 56 58 82 94 95 75 96 94 98 98 98 95 73 61 58 73 92 89 80 58 62 51 42 51 70 95 96 89 84 43 49 38 44 70 60
70 69 73 73 76 67 72 69 68 64 63 53 52 64 51 94 74 81 91 95 72 68 84 96 94 88 58 94 95 76 64 38 61 59 68 74 94 90 73 81 52 36 39 38 71 66 49
74 73 70 72 75 72 67 73 69 66 62 54 55 57 56 60 58 55 64 73 62 64 76 79 86 86 84 97 82 63 56 38 38 30 35 53 68 69 68 76 69 35 35 54 50 38 34
76 75 74 72 73 77 76 68 72 68 69 56 43 46 46 53 56 47 47 47 47 47 61 66 58 61 63 75 63 53 58 48 41 46 28 56 35 43 35 38 38 26 27 22 21 24 26

GFSGBSN_sfc_rhum_186.txt.gz
RH
85 88 90 88 90 87 85 86 88 89 89 93 94 93 92 91 89 88 88 87 85 83 79 78 84 87 47 27 19 25 58 45 18 13 12 11 10 10 12 8 7 8 7 6 7 7 6
78 86 90 91 90 94 85 86 88 90 92 93 94 94 93 92 90 90 89 88 86 85 83 82 84 88 40 39 12 12 14 14 13 11 12 11 12 11 16 13 12 9 9 10 9 9 8
75 81 86 91 92 92 92 86 88 90 91 92 93 93 93 92 92 91 89 88 88 86 82 77 84 54 42 37 15 12 16 16 12 14 13 12 12 15 13 15 12 12 14 13 12 10 10
76 75 84 90 92 94 94 88 89 91 92 92 92 93 93 93 93 92 90 90 89 86 83 84 84 48 45 18 14 15 14 14 15 15 16 15 15 17 17 14 15 17 17 21 13 10 9
76 80 75 83 90 93 94 93 90 92 92 92 91 92 93 93 93 92 92 91 89 85 84 84 60 53 44 34 24 20 18 18 15 15 16 14 17 20 18 20 21 20 23 17 13 9 10
77 77 79 80 85 90 92 96 92 92 92 92 91 92 92 93 93 93 94 90 89 89 74 46 40 49 38 23 19 24 23 18 17 20 21 27 25 26 24 21 26 18 15 15 16 12 12
78 77 78 78 80 85 89 94 95 92 93 93 92 92 92 92 93 94 89 71 68 67 56 46 38 29 15 18 25 25 25 25 22 29 38 31 33 31 24 21 18 18 20 20 17 14 16
78 78 76 76 83 88 88 93 98 94 93 93 92 92 92 92 92 92 66 59 40 41 56 53 42 34 23 19 33 28 25 32 35 40 33 32 39 24 19 18 19 21 23 24 20 17 18
77 78 76 78 78 84 91 92 97 97 94 94 93 93 92 93 93 92 68 52 26 34 48 33 49 44 31 21 24 23 27 30 30 35 32 33 25 23 24 24 26 25 27 26 26 22 19
79 79 78 76 79 81 88 92 97 99 96 95 94 93 93 94 98 90 78 46 39 55 50 28 24 29 27 21 24 16 17 26 30 30 25 28 21 22 23 26 24 32 22 24 26 28 34
80 80 80 78 77 83 90 91 96 97 98 97 95 94 95 89 84 96 71 52 71 69 92 27 23 20 24 28 27 27 19 20 31 30 28 31 27 26 26 25 22 31 25 26 28 32 35
81 81 80 80 78 81 87 91 97 97 98 97 97 95 94 95 80 73 58 74 79 91 94 38 38 43 42 33 32 33 30 23 19 29 28 28 21 22 23 26 26 24 29 29 31 34 49
82 82 81 81 81 80 88 90 93 96 98 97 97 96 96 91 91 75 81 86 98 99 36 39 56 46 46 46 41 39 47 44 40 48 60 46 39 28 28 36 29 28 37 50 49 52 51
84 83 82 82 82 82 85 88 93 97 98 97 97 97 94 94 88 85 90 98 100 64 46 28 40 46 55 47 49 47 50 54 42 44 44 52 55 40 33 38 37 34 36 47 51 47 33
84 85 84 84 83 83 81 87 90 98 98 98 98 98 98 97 95 92 97 100 93 65 42 42 44 58 58 46 45 51 54 52 45 45 50 41 44 25 30 30 31 34 41 30 42 38 42
86 86 85 84 84 83 83 92 94 98 98 99 98 99 96 97 95 96 98 98 84 47 46 41 54 57 56 50 49 51 54 41 41 36 34 36 46 30 27 27 28 33 25 46 49 64 62
85 82 84 84 84 85 87 90 93 97 98 98 99 100 100 99 98 99 100 97 80 51 45 56 64 62 47 46 47 48 44 32 33 33 30 34 39 38 31 34 34 34 38 36 37 45 62
95 96 96 97 98 94 94 91 92 96 98 99 100 100 99 99 100 100 100 91 73 53 46 62 59 58 56 50 64 47 42 37 26 30 36 36 39 44 37 30 24 25 34 36 61 50 44
91 94 94 94 95 96 98 98 97 98 92 98 100 100 97 97 100 100 100 88 74 58 60 67 68 52 50 79 84 65 57 64 40 34 43 45 56 56 46 38 29 32 30 28 35 48 61
85 90 91 91 92 93 94 96 97 97 97 97 100 100 100 99 100 100 100 100 99 87 73 71 58 62 80 86 73 67 67 58 45 42 71 54 46 51 57 46 40 50 34 29 34 60 56
74 76 82 88 91 90 91 92 94 95 94 97 100 100 91 100 100 100 98 100 100 100 96 85 91 90 88 98 88 91 70 81 62 65 52 52 63 46 39 34 34 34 35 32 39 42 60
75 74 70 72 79 85 89 90 91 92 93 98 100 100 98 100 94 99 97 100 100 100 97 100 100 92 92 99 95 98 84 84 86 66 57 54 92 62 65 42 40 49 38 35 33 33 35
72 72 73 67 64 71 79 83 88 89 91 100 99 95 92 97 100 100 99 99 98 94 98 90 91 99 99 98 90 86 82 84 92 91 88 91 93 96 92 55 57 85 61 47 40 33 36
69 71 72 72 70 64 65 73 80 81 86 96 97 97 100 100 98 96 90 91 96 94 97 90 91 94 94 80 84 86 86 89 93 89 83 100 98 99 95 68 96 45 29 31 37 42 52
70 72 69 73 73 73 70 65 67 72 76 85 90 90 100 100 96 95 92 91 89 90 97 94 92 80 76 77 99 99 98 96 85 82 94 90 98 99 95 80 60 46 38 45 52 55 55
72 70 74 74 72 73 74 72 66 66 67 70 65 68 82 97 99 83 97 96 99 100 99 97 80 76 77 97 100 94 87 64 70 69 61 80 81 95 98 95 86 58 43 38 42 68 50
74 74 71 74 77 73 72 74 73 67 64 58 58 69 60 92 74 86 98 98 91 86 97 98 97 97 82 99 97 89 92 53 88 77 73 96 99 93 92 94 76 36 38 35 66 70 44
76 75 75 73 75 77 76 71 74 72 68 58 55 56 70 79 66 62 72 93 88 89 85 97 90 97 100 99 88 79 74 64 53 51 52 67 77 79 73 76 80 42 40 51 52 33 27
78 76 75 74 74 74 76 75 71 73 72 64 47 40 45 66 65 50 58 52 59 69 90 78 68 69 73 83 74 68 73 63 56 54 37 84 62 63 58 62 46 32 28 25 24 28 26

GFSGBSN_sfc_rhum_192.txt.gz
RH
75 76 76 75 82 82 82 83 89 94 90 89 89 83 92 94 93 92 91 90 86 83 83 82 80 85 64 58 46 30 72 58 31 24 22 23 25 23 23 19 21 21 17 14 13 15 16
78 76 77 78 79 80 82 84 89 92 94 90 89 87 94 95 94 92 91 90 87 85 83 83 81 86 71 61 28 28 36 28 26 24 23 22 24 21 22 25 27 21 22 21 20 19 19
80 78 77 78 79 85 82 88 89 91 94 90 87 89 94 94 95 93 92 90 88 85 84 82 82 70 72 51 35 33 30 28 23 24 28 26 26 26 30 26 23 20 23 20 20 24 20
78 83 79 78 79 86 88 88 91 87 91 94 87 89 94 95 96 94 92 91 90 86 84 82 86 79 75 41 42 36 37 35 25 26 25 27 25 31 32 27 25 25 30 26 22 22 20
80 82 83 78 80 82 88 89 91 90 91 96 89 90 95 96 96 94 93 92 90 87 83 82 85 80 77 47 42 36 32 27 26 25 24 18 28 30 28 34 36 34 26 33 24 20 21
83 81 81 81 80 81 89 88 91 91 89 88 94 92 95 95 96 95 93 92 89 86 81 65 64 70 54 42 34 27 30 26 30 29 32 31 35 43 39 35 23 32 36 39 33 24 24
85 84 83 83 79 80 86 85 89 94 94 91 94 93 94 95 95 94 92 88 93 94 92 77 68 51 32 34 32 36 33 30 29 30 37 38 51 52 32 28 19 32 33 32 29 22 30
83 86 86 84 80 80 84 84 88 92 91 89 94 94 94 95 94 91 78 85 70 54 84 74 62 54 42 36 42 34 33 39 36 38 37 51 50 37 32 32 34 34 37 36 30 25 32
84 84 86 84 81 81 82 85 88 92 93 91 91 95 94 94 93 89 79 66 51 56 75 62 68 60 45 41 46 40 36 43 42 39 38 43 42 37 37 36 36 37 40 36 35 33 36
85 86 83 85 82 81 82 85 86 91 92 93 89 96 94 94 98 85 87 55 61 60 68 52 70 62 48 43 48 29 33 40 45 43 47 47 35 38 43 42 36 44 32 32 38 49 52
90 85 82 85 82 83 82 84 88 89 92 93 91 97 95 93 83 94 73 60 67 63 81 30 44 39 40 44 33 37 28 38 48 47 51 54 48 50 46 42 37 43 36 40 41 49 58
90 85 86 84 84 83 84 85 91 91 92 94 93 97 94 90 85 70 65 77 74 82 83 38 43 63 58 46 33 28 32 37 34 42 39 39 33 38 41 34 34 36 41 46 51 55 62
84 88 84 83 84 84 84 85 89 91 93 94 94 97 96 79 92 64 72 88 95 92 38 35 50 51 55 56 45 38 36 48 42 59 54 39 39 34 36 42 37 40 50 72 74 79 61
83 81 83 84 84 84 85 85 89 90 88 95 93 98 93 85 70 66 84 89 93 51 39 40 43 46 48 49 44 41 35 46 39 38 48 51 48 38 32 36 40 42 46 70 76 78 62
81 81 83 85 85 84 84 85 89 91 92 93 96 99 98 95 73 69 93 96 68 47 36 37 49 54 58 46 43 42 46 36 33 33 46 52 48 37 33 28 32 45 56 43 60 64 73
80 82 86 86 86 85 85 85 88 87 89 93 98 99 96 96 80 87 92 79 63 44 34 30 62 64 69 59 58 46 50 46 45 29 30 50 55 46 42 41 37 36 38 62 72 82 78
89 86 87 87 86 86 85 86 85 86 89 93 99 100 97 96 93 96 99 78 62 51 48 34 35 54 69 67 60 58 57 46 43 48 29 35 60 60 50 55 52 55 50 55 54 75 84
90 88 87 90 86 86 86 87 87 84 85 98 99 100 99 98 100 99 99 78 57 52 54 62 88 56 56 68 65 67 62 60 59 48 59 40 55 66 62 48 44 45 49 48 70 79 74
81 88 88 87 90 87 84 86 87 84 81 96 99 100 99 100 100 100 99 79 63 61 58 69 81 82 60 75 85 74 62 68 59 68 63 56 81 92 76 57 44 54 50 47 60 67 73
82 81 86 88 87 89 90 86 86 85 82 96 100 100 100 100 100 97 100 96 89 63 64 76 72 76 83 81 82 86 77 72 73 72 83 79 76 82 81 71 60 67 57 51 57 80 77
74 77 84 86 87 90 93 84 85 86 86 95 100 100 94 100 100 97 88 98 95 99 72 74 94 81 88 99 85 96 87 91 88 87 83 83 95 83 67 75 68 62 71 64 74 70 81
74 75 75 83 86 90 94 90 85 87 88 98 100 100 99 98 96 94 96 100 92 100 86 100 96 89 88 96 89 96 85 90 93 96 94 94 100 96 96 81 80 83 70 63 63 69 68
70 71 75 74 84 89 91 93 94 89 91 100 100 98 94 96 98 98 98 95 93 86 97 79 88 97 92 87 94 96 95 93 93 96 99 97 98 100 100 97 99 100 86 69 55 47 59
72 70 71 74 76 81 86 90 92 92 91 98 100 98 99 100 97 96 92 87 90 91 93 95 97 93 98 93 92 90 92 94 97 99 90 99 100 100 100 99 98 82 53 51 55 54 53
74 73 73 72 76 77 80 82 86 90 92 98 100 97 100 100 93 94 93 87 85 84 92 96 98 89 92 91 99 100 99 100 97 91 97 85 98 100 99 96 82 67 54 54 65 68 61
76 74 74 75 73 75 79 79 79 82 90 96 98 99 98 99 98 87 91 84 96 98 100 99 98 93 94 99 100 98 96 98 99 98 86 93 92 97 100 98 95 75 54 49 50 87 61
77 76 76 78 78 74 74 78 77 77 75 89 96 94 98 100 96 92 99 96 95 97 99 99 99 100 93 100 99 98 98 71 97 95 98 100 100 98 99 98 88 60 50 47 71 71 61
77 77 76 78 80 80 75 75 76 76 76 76 76 76 90 98 97 90 91 98 98 97 99 100 97 98 100 100 99 98 99 91 87 79 90 93 97 98 98 99 93 56 52 61 69 66 56
76 78 78 79 80 82 80 74 76 73 76 73 80 72 78 93 92 73 74 88 84 87 96 97 96 98 98 99 100 99 99 95 91 97 74 96 81 89 80 81 58 55 56 54 50 49 41

GFSGBSN_sfc_rhum_198.txt.gz
RH
69 70 72 75 76 78 73 76 79 82 82 83 85 84 82 91 86 92 94 94 93 89 86 83 80 82 67 59 46 35 62 49 30 28 24 24 25 23 23 23 28 28 26 24 23 23 24
72 73 76 78 79 78 75 78 78 79 83 84 85 87 85 84 90 89 96 95 93 90 86 83 78 83 76 61 32 37 38 31 29 28 27 26 27 26 29 31 31 31 28 27 25 24 23
72 76 76 75 76 79 80 80 80 80 82 83 84 87 89 86 87 90 95 95 94 91 86 83 79 76 76 50 39 49 44 42 37 32 32 31 29 31 31 33 28 28 27 22 19 25 24
74 82 82 81 80 78 79 79 80 79 80 84 83 86 87 85 90 92 95 95 94 90 86 82 83 79 73 44 54 48 49 41 38 37 32 30 29 30 34 32 27 31 29 27 16 26 22
75 80 82 84 82 82 79 79 79 80 80 84 82 82 86 89 90 95 96 96 94 88 85 81 87 82 73 52 57 45 39 36 33 33 34 21 28 34 34 36 35 33 27 26 19 17 22
72 78 77 81 79 81 82 80 81 81 80 83 82 83 88 88 90 95 96 96 95 90 81 73 73 81 64 51 46 41 47 31 33 34 34 36 45 42 46 36 29 29 37 47 29 21 30
66 70 73 76 82 82 84 82 81 82 81 83 83 81 85 89 93 95 97 98 99 98 85 85 78 61 42 43 38 40 40 34 32 37 42 44 50 47 28 35 29 26 33 29 32 27 30
67 71 74 74 76 81 83 84 81 82 82 84 83 82 84 89 91 96 91 94 73 68 84 79 80 67 52 48 49 42 33 40 40 45 43 52 52 37 31 29 32 31 31 28 22 21 31
72 74 77 77 74 79 83 85 82 83 83 83 84 82 86 92 91 98 92 85 49 55 73 77 72 71 64 50 52 47 37 42 44 45 44 47 40 35 34 37 35 33 30 29 26 38 43
78 83 83 82 78 77 81 85 84 84 84 84 84 83 87 92 98 92 94 72 54 51 77 62 91 69 54 49 50 38 39 38 47 42 46 42 33 44 41 36 36 39 36 31 39 46 50
82 87 88 86 86 84 84 88 85 85 85 85 85 85 88 94 87 96 80 66 61 48 94 39 74 47 48 48 39 44 40 50 57 44 46 38 47 38 51 45 37 44 40 42 47 55 67
83 88 89 85 88 86 85 85 84 85 85 86 84 84 91 98 94 89 71 74 73 88 92 48 70 71 62 50 36 44 41 46 49 56 57 41 52 37 33 32 38 40 52 56 62 65 83
81 89 89 82 84 86 86 85 84 86 84 85 84 84 91 94 94 88 74 86 100 97 40 54 83 70 56 60 42 44 45 57 61 69 66 57 55 48 43 46 49 46 54 68 77 87 62
76 89 88 88 89 92 89 87 86 87 87 86 84 87 91 92 88 89 91 97 98 66 45 45 66 70 60 55 45 39 45 49 47 49 40 41 35 48 43 38 51 50 53 76 70 75 53
77 80 86 88 89 90 87 87 87 87 88 87 86 97 94 96 92 95 99 100 80 60 41 65 66 78 71 58 51 43 37 38 39 41 32 47 40 38 32 34 33 53 60 49 63 75 78
75 68 82 86 87 91 90 89 88 87 86 88 98 97 94 84 94 98 99 97 73 37 38 54 72 67 73 62 59 48 45 32 36 35 36 44 49 43 37 32 32 42 46 69 80 80 82
69 76 72 82 82 85 92 92 89 87 88 87 98 100 93 84 98 99 99 97 66 34 34 36 60 72 58 63 51 52 46 37 28 38 32 40 48 61 44 47 44 47 43 60 67 78 81
73 73 75 79 84 82 83 88 88 84 83 96 98 100 94 94 100 100 100 85 58 44 52 34 59 69 62 56 60 51 48 35 32 38 45 37 56 64 62 59 41 38 45 40 79 73 77
71 70 71 74 84 82 82 82 84 84 92 97 100 100 96 94 100 100 98 84 54 55 46 59 65 67 65 67 71 52 46 57 49 39 48 43 67 78 68 74 66 63 61 48 45 70 63
72 70 72 72 74 83 83 82 82 83 89 96 100 100 100 99 100 97 99 85 72 45 72 75 86 81 73 73 75 62 72 81 69 38 67 44 70 52 39 54 72 74 57 61 57 79 67
72 71 71 73 73 82 88 86 83 83 91 95 100 100 97 100 100 99 88 81 78 87 73 74 86 82 77 85 90 88 87 97 85 83 80 54 84 72 50 68 70 72 67 59 67 62 76
70 70 74 76 79 84 90 90 91 86 90 98 100 100 99 100 92 97 93 92 76 75 81 87 83 86 87 93 77 94 92 91 90 96 90 95 98 87 80 71 75 85 77 69 65 61 61
71 69 67 74 79 84 91 90 88 86 89 100 100 98 100 96 97 98 96 91 75 61 72 70 77 81 83 82 87 98 98 92 90 96 98 98 97 100 96 79 86 99 81 71 68 58 59
71 72 68 73 76 78 90 92 86 86 84 98 98 98 100 100 98 97 90 85 78 68 69 66 71 76 79 90 90 89 89 91 96 96 89 99 99 99 100 100 99 83 69 64 69 62 60
71 73 69 70 78 78 83 88 93 86 81 98 99 97 100 100 94 90 91 82 80 69 69 82 83 74 82 91 98 100 100 99 93 85 94 96 97 99 99 98 91 66 84 80 77 75 64
69 74 73 72 76 79 78 86 86 92 79 96 100 98 99 100 99 87 89 84 94 93 88 94 98 85 93 99 100 99 97 98 100 97 84 89 93 98 100 98 94 76 78 70 68 89 80
72 71 73 72 75 78 79 76 88 86 90 96 99 98 98 100 97 97 91 92 86 95 98 99 99 100 96 100 100 99 99 88 98 98 99 99 99 98 96 98 93 72 70 67 95 79 74
76 77 71 72 76 78 80 76 79 84 85 94 99 98 98 100 98 94 94 96 98 92 98 98 97 98 100 100 100 99 99 96 97 88 94 94 97 98 99 99 95 64 72 74 71 76 78
81 75 71 70 75 79 79 76 78 81 82 86 98 95 96 98 100 97 98 98 98 93 94 94 94 96 96 99 100 100 100 99 92 91 84 97 89 91 90 85 68 62 66 62 65 69 68

GFSGBSN_sfc_rhum_201.txt.gz
RH
67 68 69 70 71 71 71 73 77 79 80 83 84 83 81 75 78 90 93 93 93 93 89 85 83 81 61 46 38 30 59 45 23 19 16 16 17 16 17 16 18 18 18 17 17 18 18
65 69 70 73 73 74 70 75 78 78 80 80 85 84 85 82 83 84 88 93 94 95 90 85 82 81 61 59 28 33 36 25 21 18 18 17 17 16 18 20 21 22 21 20 20 17 18
68 74 74 78 82 83 80 77 77 80 80 81 83 85 85 86 87 84 85 94 93 95 90 85 80 68 69 52 30 38 38 30 28 24 22 22 21 21 22 23 22 22 21 18 16 17 17
64 73 67 74 79 81 85 82 80 78 81 81 81 85 86 87 88 87 86 95 94 95 90 85 80 66 71 41 38 40 35 30 30 28 23 22 20 23 23 23 22 22 22 18 12 20 18
65 62 65 67 75 77 80 84 83 81 80 80 80 82 85 88 89 87 90 96 95 94 90 82 73 64 70 48 48 37 33 28 27 25 24 20 20 25 25 26 23 25 14 18 13 14 17
63 67 65 62 69 74 76 79 83 82 81 80 80 81 84 88 88 90 93 95 96 94 89 70 67 69 59 51 41 40 39 28 26 30 27 27 32 26 30 23 15 20 21 22 20 14 19
59 65 65 70 68 69 68 74 78 82 82 81 80 81 84 84 88 92 97 99 99 99 96 81 78 62 41 42 36 36 38 29 28 30 33 33 29 28 23 26 18 18 20 17 18 21 20
57 64 66 70 71 75 74 72 77 81 84 82 81 81 84 83 88 91 95 97 70 59 93 76 77 68 51 48 48 36 32 34 33 32 34 36 38 25 25 26 25 26 24 23 20 18 22
60 67 70 72 76 79 82 80 74 80 84 83 82 82 84 84 88 95 94 90 52 52 70 76 76 72 63 51 57 41 34 36 34 36 34 29 27 30 28 26 28 27 25 24 17 20 21
62 69 73 75 80 86 85 81 82 77 83 84 83 83 84 84 92 86 96 78 76 55 76 65 85 65 57 45 51 35 32 31 36 36 38 30 25 36 32 27 26 30 25 21 23 25 22
65 70 75 75 86 88 85 84 84 80 83 85 85 84 84 83 84 93 72 82 83 61 95 43 70 48 54 53 38 43 35 41 41 39 34 34 37 32 33 35 28 30 31 30 32 34 42
66 69 75 77 86 87 85 85 83 82 85 86 86 85 84 92 87 75 73 82 99 99 88 53 67 77 74 58 37 40 42 40 40 37 39 28 37 28 27 30 28 33 42 43 50 44 54
70 70 78 73 84 87 85 89 86 84 88 88 86 85 89 87 90 79 87 96 100 98 42 84 76 73 68 68 54 40 48 55 52 57 56 50 44 41 35 38 36 37 41 42 52 56 38
68 70 74 73 82 86 91 91 88 86 85 88 87 87 88 88 81 88 98 100 100 87 46 54 65 66 64 58 57 43 44 56 47 42 28 42 42 45 40 38 44 41 38 47 35 44 23
63 65 72 75 79 82 88 92 89 86 84 86 88 98 97 90 91 91 99 100 97 83 38 54 64 74 62 49 48 44 40 42 45 42 27 40 33 35 37 34 32 50 49 30 39 49 45
67 67 69 73 76 80 86 89 91 90 85 87 98 98 96 86 90 99 100 95 100 70 35 46 56 57 68 53 46 43 42 31 36 38 29 35 33 35 32 30 28 36 36 54 63 54 44
66 68 67 68 75 77 79 86 89 87 85 86 98 100 92 88 95 100 99 99 87 76 54 44 49 69 53 57 43 44 41 31 28 35 34 40 38 54 38 39 34 39 46 51 52 57 45
63 67 68 69 71 75 75 78 86 91 90 95 99 100 96 90 100 100 100 98 79 79 57 39 44 57 57 51 52 45 45 32 27 30 46 37 59 61 44 48 31 30 35 48 52 57 60
63 65 68 69 68 73 74 78 78 85 94 97 100 100 97 90 99 98 100 94 76 76 57 41 55 55 52 56 61 47 42 40 42 32 42 40 62 55 47 39 49 39 38 36 40 57 51
63 65 67 68 68 71 72 79 81 79 84 98 100 100 99 98 100 96 100 97 89 76 67 48 52 58 63 59 57 57 57 70 53 31 63 41 62 37 32 40 48 64 43 40 41 60 47
68 66 70 73 72 75 76 80 84 82 81 99 100 100 95 100 99 99 91 88 94 98 72 66 76 57 60 76 60 68 59 90 77 57 56 52 53 49 33 55 45 44 49 48 46 44 60
62 66 74 72 71 76 78 84 86 89 83 99 100 99 100 99 96 99 99 95 86 90 83 74 71 68 78 81 63 85 61 84 78 86 58 82 92 74 55 45 56 68 52 42 50 46 45
65 66 71 72 72 76 78 87 89 90 87 99 99 96 97 97 100 99 98 96 84 82 77 54 64 66 81 90 86 90 85 85 82 69 71 80 91 99 87 65 82 99 74 56 55 45 51
74 68 71 69 72 75 79 89 93 88 83 98 98 96 99 99 96 97 89 95 89 79 71 65 62 64 80 84 80 77 80 86 86 93 84 97 86 96 96 100 98 58 49 50 57 55 54
74 74 71 68 72 73 78 85 91 86 82 98 99 96 100 100 98 97 85 88 81 70 74 63 75 71 81 80 94 100 99 93 84 82 94 83 94 100 98 90 68 66 65 70 69 65 55
75 77 72 69 71 72 77 79 85 91 86 97 100 97 98 100 100 96 90 83 89 81 79 95 96 84 88 96 100 98 81 85 96 82 71 91 88 99 100 99 98 64 55 55 56 80 49
76 78 71 69 71 73 77 78 82 88 89 95 99 98 96 100 96 99 99 91 89 80 85 93 89 99 88 100 100 99 91 74 88 83 84 97 99 98 98 99 95 60 58 58 90 70 61
76 79 74 68 70 77 78 77 82 89 91 96 99 97 97 100 98 97 97 99 97 87 97 99 96 99 100 100 100 100 100 97 96 85 96 95 98 100 99 99 96 58 69 71 65 60 69
81 82 78 74 79 79 78 76 79 85 91 91 99 97 97 98 99 97 95 98 99 97 91 94 90 95 97 100 100 99 100 99 90 94 79 97 80 84 82 81 65 59 59 58 55 56 66